cover

 

Get it on iTunes StoreListen on Apple Music

Flower Power

#Trackname / Key / BPM / Publish dateArtists, Remixers / Label
1 123 bpm, 5A / C minor, 2020-06-01, Tech House,  0  24
2 124 bpm, 11A / F# minor, 2020-06-01, Tech House,  0  24
3 123 bpm, 11A / F# minor, 2020-06-01, Tech House,  0  24
4 126 bpm, 7B / F major, 2020-06-01, Tech House,  0  24
5 116 bpm, 11A / F# minor, 2020-06-01, Deep House,  0  24
6 118 bpm, 10B / D major, 2020-06-01, Tech House,  0  24
7 124 bpm, 10A / B minor, 2020-06-01, Tech House,  0  24
8 120 bpm, 5A / C minor, 2020-06-01, Tech House,  0  24
9 123 bpm, 8A / A minor, 2020-06-01, Tech House,  0  24
10 127 bpm, 8B / C major, 2020-06-01, Tech House,  0  24
11 125 bpm, 10A / B minor, 2020-06-01, Tech House,  0  24
12 123 bpm, 7A / D minor, 2020-06-01, Tech House,  0  24
13 124 bpm, 8B / C major, 2020-06-01, Tech House,  0  24
14 123 bpm, 8A / A minor, 2020-06-01, Tech House,  0  24
15 111 bpm, 10B / D major, 2020-06-01, Deep House,  0  24
16 121 bpm, 6B / Bb major, 2020-06-01, Deep House,  0  24
17 118 bpm, 2A / Eb minor, 2020-06-01, Deep House,  0  24
18 122 bpm, 5A / C minor, 2020-06-01, Deep House,  0  24
19 122 bpm, 10B / D major, 2020-06-01, Deep House,  0  24
20 126 bpm, 8A / A minor, 2020-06-01, Tech House,  0  24
21 125 bpm, 7B / F major, 2020-06-01, Deep House,  0  24
22 122 bpm, 4A / F minor, 2020-06-01, Deep House,  0  24
23 123 bpm, 7A / D minor, 2020-06-01, Afro House,  0  24
24 125 bpm, 1A / Ab minor, 2020-06-01, Afro House,  0  24
25 127 bpm, 9B / G major, 2020-05-25, Techno,  0  18
26 124 bpm, 10A / B minor, 2020-05-25, Progressive House,  0  18
27 124 bpm, 2A / Eb minor, 2020-05-25, Progressive House,  0  18
28 122 bpm, 7A / D minor, 2020-05-25, Progressive House,  0  18
29 124 bpm, 5A / C minor, 2020-05-25, Progressive House,  0  18
30 128 bpm, 7A / D minor, 2020-05-25, Progressive House,  0  18
31 124 bpm, 8A / A minor, 2020-05-25, Progressive House,  0  18
32 120 bpm, 11B / A major, 2020-05-25, Progressive House,  0  18
33 125 bpm, 11B / A major, 2020-05-25, Progressive House,  0  18
34 125 bpm, 7A / D minor, 2020-05-25, Progressive House,  0  18
35 123 bpm, 10A / B minor, 2020-05-25, Techno,  0  18
36 122 bpm, 9A / E minor, 2020-05-25, Progressive House,  0  18
37 125 bpm, 7A / D minor, 2020-05-25, Techno,  0  18
38 122 bpm, 8B / C major, 2020-05-25, Progressive House,  0  18
39 120 bpm, 11B / A major, 2020-05-25, Progressive House,  0  18
40 120 bpm, 7A / D minor, 2020-05-25, Progressive House,  0  18
41 120 bpm, 7B / F major, 2020-05-25, Progressive House,  0  18
42 120 bpm, 8A / A minor, 2020-05-25, Techno,  0  18
43 125 bpm, 4A / F minor, 2020-05-18, Progressive House,  0  21
44 108 bpm, 8A / A minor, 2020-05-18, Melodic House & Techno,  0  21
45 125 bpm, 5B / Eb major, 2020-05-18, Melodic House & Techno,  0  21
46 130 bpm, 12A / Db minor, 2020-05-18, Melodic House & Techno,  0  21
47 124 bpm, 11A / F# minor, 2020-05-18, Melodic House & Techno,  0  21
48 120 bpm, 8B / C major, 2020-05-18, Melodic House & Techno,  0  21
49 123 bpm, 5A / C minor, 2020-05-18, Melodic House & Techno,  0  21
50 123 bpm, 7B / F major, 2020-05-18, Melodic House & Techno,  0  21
51 124 bpm, 7B / F major, 2020-05-18, Progressive House,  0  21
52 118 bpm, 5A / C minor, 2020-05-18, Melodic House & Techno,  0  21
53 123 bpm, 7B / F major, 2020-05-18, Melodic House & Techno,  0  21
54 128 bpm, 7A / D minor, 2020-05-18, Melodic House & Techno,  0  21
55 129 bpm, 4A / F minor, 2020-05-18, Melodic House & Techno,  0  21
56 120 bpm, 8A / A minor, 2020-05-18, Progressive House,  0  21
57 125 bpm, 6B / Bb major, 2020-05-18, Melodic House & Techno,  0  21
58 123 bpm, 7A / D minor, 2020-05-18, Melodic House & Techno,  0  21
59 124 bpm, 7B / F major, 2020-05-18, Progressive House,  0  21
60 115 bpm, 5A / C minor, 2020-05-18, Melodic House & Techno,  0  21
61 124 bpm, 2A / Eb minor, 2020-05-18, Progressive House,  0  21
62 123 bpm, 10A / B minor, 2020-05-18, Melodic House & Techno,  0  21
63 126 bpm, 1A / Ab minor, 2020-05-18, Progressive House,  0  21
64 125 bpm, 6A / G minor, 2020-05-11, Indie Dance / Nu Disco,  0  20
65 122 bpm, 8B / C major, 2020-05-11, Electronica,  0  20
66 137 bpm, 8B / C major, 2020-05-11, Indie Dance / Nu Disco,  0  20
67 123 bpm, 9B / G major, 2020-05-11, Electronica,  1  20
68 128 bpm, 2A / Eb minor, 2020-05-11, Electronica,  0  20
69 118 bpm, 6B / Bb major, 2020-05-11, Indie Dance / Nu Disco,  0  20
70 121 bpm, 7A / D minor, 2020-05-11, Electronica,  0  20
71 121 bpm, 7A / D minor, 2020-05-11, Indie Dance / Nu Disco,  0  20
72 103 bpm, 12B / E major, 2020-05-11, Electronica,  0  20
73 120 bpm, 12A / Db minor, 2020-05-11, Electronica,  0  20
74 122 bpm, 12B / E major, 2020-05-11, Electronica,  0  20
75 90 bpm, 12B / E major, 2020-05-11, Electronica,  0  20
76 96 bpm, 12A / Db minor, 2020-05-11, Electronica,  0  20
77 124 bpm, 10B / D major, 2020-05-11, Indie Dance / Nu Disco,  0  20
78 118 bpm, 1A / Ab minor, 2020-05-11, Indie Dance / Nu Disco,  0  20
79 104 bpm, 5A / C minor, 2020-05-11, Indie Dance / Nu Disco,  0  20
80 123 bpm, 5A / C minor, 2020-05-11, Indie Dance / Nu Disco,  0  20
81 115 bpm, 10B / D major, 2020-05-11, Indie Dance / Nu Disco,  0  20
82 113 bpm, 6B / Bb major, 2020-05-11, Indie Dance / Nu Disco,  0  20
83 120 bpm, 10B / D major, 2020-05-11, Indie Dance / Nu Disco,  0  20
84 126 bpm, 3A / Bb minor, 2020-05-04, Techno,  0  20
85 125 bpm, 10B / D major, 2020-05-04, Techno,  0  20
86 128 bpm, 9A / E minor, 2020-05-04, Techno,  0  20
87 126 bpm, 8A / A minor, 2020-05-04, Techno,  0  20
88 133 bpm, 7A / D minor, 2020-05-04, Techno,  0  20
89 126 bpm, 12A / Db minor, 2020-05-04, Techno,  0  20
90 126 bpm, 9A / E minor, 2020-05-04, Techno,  0  20
91 128 bpm, 6A / G minor, 2020-05-04, Techno,  0  20
92 134 bpm, 1A / Ab minor, 2020-05-04, Techno,  0  20
93 131 bpm, 8B / C major, 2020-05-04, Techno,  0  20
94 132 bpm, 5B / Eb major, 2020-05-04, Techno,  0  20
95 129 bpm, 7A / D minor, 2020-05-04, Techno,  0  20
96 126 bpm, 3A / Bb minor, 2020-05-04, Techno,  0  20
97 126 bpm, 10B / D major, 2020-05-04, Techno,  0  20
98 135 bpm, 6A / G minor, 2020-05-04, Techno,  0  20
99 124 bpm, 11B / A major, 2020-05-04, Techno,  0  20
100 128 bpm, 5A / C minor, 2020-05-04, Techno,  0  20
×

Sign in

Sign in to access your personalized pages, follow artists and labels you love, and create playlists fromyour favorite tracks.

Please wait...